Delaware, OH

12:34 PM EST on February 27, 2017 (GMT -0500)
Delaware Municipal

Weather History for KDLZ - February, 2013

Change the Weather History Date:

Monday, February 11, 2013

  Actual Average Record
Temperature  
Mean Temperature 40 °F -  
Max Temperature 48 °F 35 °F 63 °F (1965)
Min Temperature 33 °F 15 °F -13 °F (2014)
Degree Days  
Heating Degree Days 24    
Moisture  
Dew Point 34 °F    
Average Humidity 76    
Maximum Humidity 93    
Minimum Humidity 57    
Precipitation  
Precipitation 0.00 in - - ()
Sea Level Pressure  
Sea Level Pressure 29.83 in    
Wind  
Wind Speed 15 mph (SW)    
Max Wind Speed 26 mph    
Max Gust Speed 39 mph    
Visibility 10 miles    
Events      
Averages and records for this station are not official NWS values.
T = Trace of Precipitation, MM = Missing Value Source: NWS Daily Summary

Daily Weather History Graph

Daily Weather History Graph

Search for Another Location

Airport or City:

Trip Planner

Search our weather history database for the weather conditions in past years. The results will help you decide how hot, cold, wet, or windy it might be!

Date:

Astronomy

Feb. 11, 2013 Rise Set
Actual Time 7:30 AM EST 6:03 PM EST
Civil Twilight 7:02 AM EST 6:31 PM EST
Nautical Twilight 6:30 AM EST 7:03 PM EST
Astronomical Twilight 5:58 AM EST 7:35 PM EST
Moon 7:54 AM EST (2/11) 7:59 PM EST (2/11)
Length of Visible Light 11h 29m
Length of Day
10h 33m
Waxing Crescent, 3% of the Moon is Illuminated
Feb 11
Waxing Crescent
Feb 17
First Quarter
Feb 25
Full
Mar 4
Last Quarter
Mar 11
New

Hourly Weather History & Observations

Time (EST) Temp. Windchill Dew Point Humidity Pressure Visibility Wind Dir Wind Speed Gust Speed Precip Events Conditions
12:04 AM 42.8 °F 34.8 °F 37.4 °F 81% 29.80 in 10.0 mi South 17.3 mph 26.5 mph N/A   Overcast
12:25 AM 42.8 °F 35.1 °F 37.4 °F 81% 29.80 in 10.0 mi South 16.1 mph - N/A   Overcast
12:45 AM 42.8 °F 35.4 °F 37.4 °F 81% 29.80 in 10.0 mi South 15.0 mph 24.2 mph N/A   Overcast
1:04 AM 42.8 °F 35.8 °F 39.2 °F 87% 29.79 in 7.0 mi South 13.8 mph - N/A   Overcast
1:25 AM 42.8 °F 35.1 °F 39.2 °F 87% 29.79 in 7.0 mi South 16.1 mph 20.7 mph N/A   Overcast
1:45 AM 42.8 °F 37.0 °F 39.2 °F 87% 29.79 in 4.0 mi South 10.4 mph - N/A   Drizzle
2:04 AM 42.8 °F 37.0 °F 41.0 °F 93% 29.79 in 5.0 mi South 10.4 mph - N/A   Light Drizzle
2:25 AM 42.8 °F 36.6 °F 41.0 °F 93% 29.78 in 10.0 mi South 11.5 mph - N/A   Overcast
2:45 AM 42.8 °F 37.5 °F 41.0 °F 93% 29.78 in 10.0 mi South 9.2 mph - N/A   Overcast
3:04 AM 42.8 °F 37.5 °F 41.0 °F 93% 29.78 in 10.0 mi South 9.2 mph - N/A   Overcast
3:25 AM 42.8 °F 38.6 °F 41.0 °F 93% 29.78 in 10.0 mi SSW 6.9 mph - N/A   Overcast
3:45 AM 44.6 °F 38.1 °F 42.8 °F 93% 29.76 in 10.0 mi SSW 13.8 mph - N/A   Overcast
4:04 AM 46.4 °F 40.7 °F 42.8 °F 87% 29.75 in 10.0 mi SSW 12.7 mph 18.4 mph N/A   Overcast
4:25 AM 46.4 °F 40.4 °F 44.6 °F 93% 29.75 in 10.0 mi SSW 13.8 mph 17.3 mph N/A   Overcast
4:44 AM 46.4 °F 39.8 °F 44.6 °F 93% 29.74 in 10.0 mi SSW 16.1 mph 20.7 mph N/A   Overcast
5:04 AM 46.4 °F 40.4 °F 44.6 °F 93% 29.74 in 10.0 mi SSW 13.8 mph 19.6 mph N/A   Overcast
5:25 AM 46.4 °F 41.1 °F 44.6 °F 93% 29.74 in 10.0 mi SSW 11.5 mph 18.4 mph N/A   Overcast
5:44 AM 46.4 °F 40.4 °F 44.6 °F 93% 29.73 in 10.0 mi South 13.8 mph 21.9 mph N/A   Overcast
6:04 AM 46.4 °F 40.4 °F 44.6 °F 93% 29.73 in 10.0 mi SSW 13.8 mph 18.4 mph N/A   Overcast
6:25 AM 44.6 °F 38.8 °F 42.8 °F 93% 29.73 in 10.0 mi SSW 11.5 mph 18.4 mph N/A   Mostly Cloudy
6:44 AM 44.6 °F 38.8 °F 42.8 °F 93% 29.73 in 10.0 mi SSW 11.5 mph 17.3 mph N/A   Scattered Clouds
7:04 AM 44.6 °F 38.1 °F 42.8 °F 93% 29.72 in 10.0 mi SSW 13.8 mph - N/A   Scattered Clouds
7:25 AM 44.6 °F 38.8 °F 42.8 °F 93% 29.72 in 10.0 mi SSW 11.5 mph - N/A   Scattered Clouds
7:44 AM 44.6 °F 38.1 °F 41.0 °F 87% 29.73 in 10.0 mi SW 13.8 mph - N/A   Scattered Clouds
8:04 AM 44.6 °F 38.4 °F 41.0 °F 87% 29.73 in 10.0 mi SW 12.7 mph 21.9 mph N/A   Clear
8:25 AM 46.4 °F 40.1 °F 41.0 °F 81% 29.73 in 10.0 mi SW 15.0 mph 18.4 mph N/A   Scattered Clouds
8:44 AM 48.2 °F - 41.0 °F 76% 29.74 in 10.0 mi WSW 15.0 mph - N/A   Mostly Cloudy
9:04 AM 46.4 °F 39.5 °F 37.4 °F 71% 29.75 in 10.0 mi WSW 17.3 mph 26.5 mph N/A   Overcast
9:25 AM 44.6 °F 38.8 °F 35.6 °F 71% 29.75 in 10.0 mi WSW 11.5 mph 23.0 mph N/A   Mostly Cloudy
9:44 AM 44.6 °F 36.6 °F 32.0 °F 61% 29.75 in 10.0 mi WSW 19.6 mph 26.5 mph N/A   Mostly Cloudy
10:05 AM 44.6 °F 36.6 °F 32.0 °F 61% 29.76 in 10.0 mi WSW 19.6 mph 28.8 mph N/A   Scattered Clouds
10:25 AM 46.4 °F 38.5 °F 33.8 °F 62% 29.77 in 10.0 mi WSW 21.9 mph 32.2 mph N/A   Clear
10:44 AM 46.4 °F 39.5 °F 32.0 °F 57% 29.78 in 10.0 mi West 17.3 mph 35.7 mph N/A   Clear
11:05 AM 46.4 °F 38.1 °F 33.8 °F 62% 29.78 in 10.0 mi West 24.2 mph 32.2 mph N/A   Scattered Clouds
11:25 AM 44.6 °F 35.7 °F 32.0 °F 61% 29.79 in 10.0 mi West 24.2 mph 33.4 mph N/A   Scattered Clouds
11:44 AM 44.6 °F 36.1 °F 32.0 °F 61% 29.80 in 10.0 mi West 21.9 mph 33.4 mph N/A   Scattered Clouds
12:05 PM 42.8 °F 35.1 °F 32.0 °F 66% 29.80 in 10.0 mi WSW 16.1 mph 33.4 mph N/A   Mostly Cloudy
12:25 PM 42.8 °F 32.9 °F 30.2 °F 61% 29.81 in 10.0 mi WSW 26.5 mph 34.5 mph N/A   Scattered Clouds
12:44 PM 42.8 °F 35.1 °F 30.2 °F 61% 29.82 in 10.0 mi WSW 16.1 mph 31.1 mph N/A   Mostly Cloudy
1:05 PM 41.0 °F 31.6 °F 30.2 °F 65% 29.81 in 10.0 mi WSW 20.7 mph 33.4 mph N/A   Mostly Cloudy
1:25 PM 41.0 °F 31.6 °F 30.2 °F 65% 29.81 in 10.0 mi WSW 20.7 mph 34.5 mph N/A   Mostly Cloudy
1:44 PM 41.0 °F 31.1 °F 28.4 °F 61% 29.81 in 10.0 mi WSW 23.0 mph 33.4 mph N/A   Overcast
2:05 PM 41.0 °F 30.5 °F 28.4 °F 61% 29.83 in 10.0 mi West 26.5 mph 35.7 mph N/A   Mostly Cloudy
2:25 PM 41.0 °F 32.2 °F 28.4 °F 61% 29.83 in 10.0 mi West 18.4 mph 39.1 mph N/A   Scattered Clouds
2:44 PM 39.2 °F 28.7 °F 28.4 °F 65% 29.85 in 10.0 mi West 23.0 mph 33.4 mph N/A   Mostly Cloudy
3:05 PM 39.2 °F 30.2 °F 28.4 °F 65% 29.85 in 10.0 mi WSW 17.3 mph 26.5 mph N/A   Overcast
3:25 PM 37.4 °F 28.2 °F 28.4 °F 70% 29.87 in 10.0 mi West 16.1 mph 31.1 mph N/A   Overcast
3:44 PM 37.4 °F 28.9 °F 28.4 °F 70% 29.87 in 10.0 mi WSW 13.8 mph 25.3 mph N/A   Overcast
4:05 PM 37.4 °F 27.2 °F 26.6 °F 65% 29.87 in 10.0 mi WSW 19.6 mph 31.1 mph N/A   Overcast
4:25 PM 37.4 °F 27.8 °F 28.4 °F 70% 29.88 in 10.0 mi West 17.3 mph 28.8 mph N/A   Overcast
4:44 PM 37.4 °F 26.4 °F 28.4 °F 70% 29.88 in 10.0 mi West 23.0 mph 26.5 mph N/A   Overcast
5:05 PM 37.4 °F 27.8 °F 28.4 °F 70% 29.89 in 10.0 mi West 17.3 mph 21.9 mph N/A   Overcast
6:05 PM 35.6 °F 25.5 °F 28.4 °F 75% 29.91 in 10.0 mi West 17.3 mph 21.9 mph N/A   Overcast
6:24 PM 35.6 °F 26.6 °F 28.4 °F 75% 29.92 in 10.0 mi West 13.8 mph 23.0 mph N/A   Overcast
6:44 PM 35.6 °F 26.6 °F 28.4 °F 75% 29.92 in 10.0 mi West 13.8 mph 19.6 mph N/A   Overcast
7:05 PM 33.8 °F 25.3 °F 28.4 °F 81% 29.93 in 10.0 mi West 11.5 mph - N/A   Mostly Cloudy
7:24 PM 33.8 °F 24.8 °F 26.6 °F 75% 29.94 in 10.0 mi West 12.7 mph 18.4 mph N/A   Overcast
7:45 PM 33.8 °F 23.9 °F 26.6 °F 75% 29.94 in 10.0 mi West 15.0 mph 19.6 mph N/A   Overcast
8:05 PM 33.8 °F 25.3 °F 26.6 °F 75% 29.94 in 10.0 mi West 11.5 mph 19.6 mph N/A   Overcast
8:24 PM 35.6 °F 27.1 °F 26.6 °F 70% 29.94 in 10.0 mi West 12.7 mph 18.4 mph N/A   Overcast
8:45 PM 35.6 °F 27.1 °F 26.6 °F 70% 29.95 in 10.0 mi West 12.7 mph 23.0 mph N/A   Overcast
9:05 PM 35.6 °F 26.6 °F 26.6 °F 70% 29.95 in 10.0 mi West 13.8 mph 20.7 mph N/A   Overcast
9:24 PM 35.6 °F 26.6 °F 26.6 °F 70% 29.95 in 10.0 mi West 13.8 mph 21.9 mph N/A   Overcast
9:45 PM 35.6 °F 27.5 °F 26.6 °F 70% 29.96 in 10.0 mi West 11.5 mph 18.4 mph N/A   Overcast
10:05 PM 35.6 °F 26.6 °F 26.6 °F 70% 29.96 in 10.0 mi West 13.8 mph 27.6 mph N/A   Overcast
10:24 PM 35.6 °F 25.2 °F 24.8 °F 65% 29.95 in 10.0 mi West 18.4 mph 24.2 mph N/A   Overcast
10:45 PM 33.8 °F 24.8 °F 26.6 °F 75% 29.96 in 10.0 mi West 12.7 mph 21.9 mph N/A   Overcast
11:05 PM 33.8 °F 24.8 °F 26.6 °F 75% 29.97 in 10.0 mi West 12.7 mph 20.7 mph N/A   Overcast
11:24 PM 33.8 °F 24.8 °F 26.6 °F 75% 29.97 in 10.0 mi West 12.7 mph 21.9 mph N/A   Overcast
11:45 PM 33.8 °F 26.4 °F 26.6 °F 75% 29.98 in 10.0 mi West 9.2 mph 19.6 mph N/A   Overcast